STARLINK-3332 (50825 NORAD) Tracking and Keplerian Element Data
This shows tracking and keplerian element data for the satellite.
Feedback or suggestion? Click here.
Element | Value |
Catalog | 50825 |
Name | STARLINK-3332 |
Epoch Orbit | 2201 |
Epoch Day | 140.91667824 |
Epoch Year | 2022 |
RAAN | 283.5731 |
Inclination | 53.2173 |
Eccentricity | 0.0001997 |
Argument of Perigee | 40.4233 |
Mean Anonmoly | 97.6599 |
Mean Motion | 15.08837711 |
Decay Rate | 0.00025314 |
L1 | 1 50825U 22001Y 22140.91667824 .00025314 00000+0 16030-2 0 9993 |
L2 | 2 50825 53.2173 283.5731 0001997 40.4233 97.6599 15.08837711 22015 |
Live tracking and technical data element details for STARLINK-3332 (NORAD 50825). STARLINK-3332 can be tracked NOW for your location showing map with azimuth and elevation plus other details from your city location.
Track the satellite on the map from your city or location and see movement details for azimuth, elevation, latitude, longitude, range, height, and movement on the map or in text.
IsCatalogInMostPopularTable: catalog: 50825, numindb: 20
Update: records affected: 1
GetName: 50825 STARLINK-3332
Hit Count: updated at: Sun, 22 May 2022 04:31:13 GMT